Location: Feigenhofen
(48.4939°N, 10.7793°E)
Time: 15:10:32
(UTC+00:00)

Cosmos 2221 Rocket - Pass Details

Date: 26 May 2022
Orbit: 621 x 647 km, 82.5° (Epoch: 29 June)

Event Time Altitude Azimuth Distance (km) Brightness Sun altitude
Exits shadow 00:06:49 33° 242° (WSW) 1,056 4.4 -19.4°
Maximum altitude 00:08:10 42° 285° (WNW) 887 4.3 -19.4°
Drops below altitude 10° 00:12:24 10° 357° (N) 2,002 7.3 -19.2°
Sets 00:14:44 0° 5° (N) 2,913 8.6 -19.1°
